Vorticity
6 7 8 7 6 6 5 5 3 4 3 2 9 5 5 2 3 6 12 3 8 8 2 3 5 6 8 5 6 10 5 3 3 3 3 9 5 11 9 8 5 5 4 6 3
5 4 4 5 5 6 6 5 5 3 4 4 3 7 4 7 1 4 6 6 8 3 1 6 2 10 2 1 7 8 6 2 3 5 8 12 9 9 5 6 2 5 4 6 3
4 4 4 4 4 4 5 7 5 6 3 4 4 1 7 7 10 -1 9 10 4 -0 3 4 -0 1 -4 3 5 8 0 5 6 12 7 7 5 6 4 2 5 2 2 4 5
5 6 5 5 4 3 5 4 8 5 6 4 3 3 1 5 7 5 6 2 11 8 5 3 2 4 6 5 9 6 7 9 9 4 5 3 4 2 4 3 4 3 6 3 6
10 9 7 5 5 4 3 3 6 6 6 6 5 2 4 0 8 7 1 6 5 8 9 11 9 9 6 10 4 8 7 5 4 4 5 6 5 5 4 6 6 5 5 3 7
7 11 11 8 9 8 6 5 1 3 6 8 4 7 2 7 2 1 0 4 4 3 5 5 6 7 7 5 6 3 4 7 3 5 7 6 7 8 12 7 8 4 5 4 7
1 -0 -1 5 12 8 11 8 8 6 -0 5 8 6 8 1 5 4 1 4 4 5 4 4 4 4 5 4 4 4 5 3 8 5 6 6 6 10 4 3 5 5 7 5 5
-0 2 1 3 3 4 2 12 11 9 8 3 2 8 5 3 8 3 6 4 3 2 4 5 6 6 1 4 4 4 5 5 1 4 5 3 5 8 6 3 3 5 6 8 6
7 3 3 2 -0 1 5 2 -0 11 11 6 9 4 2 6 5 8 5 3 4 3 2 3 4 5 6 7 8 6 7 6 7 3 3 2 5 5 6 4 4 6 9 9 8
9 11 10 7 6 4 3 2 5 0 2 11 10 7 10 4 2 12 5 7 2 5 4 4 3 3 3 3 6 3 0 2 4 4 5 4 6 6 6 6 5 5 7 6 5
5 6 10 19 8 7 8 4 3 3 3 1 -1 12 12 7 2 0 15 7 8 4 3 2 4 4 3 2 -0 -0 -1 0 5 4 6 6 5 7 6 7 8 6 6 5 4
4 7 7 10 17 9 9 11 10 -0 3 4 -0 1 9 14 11 3 -3 10 7 7 8 6 7 2 4 3 2 2 1 5 5 5 5 5 4 6 6 6 6 7 8 6 5
2 4 7 9 8 27 13 11 8 8 3 6 4 -2 3 -4 13 16 3 -1 6 8 6 8 2 5 3 4 7 5 4 3 4 3 4 7 11 7 7 8 6 6 12 9 8
8 11 4 8 14 9 20 13 11 6 12 5 11 0 3 4 -12 15 20 7 4 6 5 10 5 9 6 5 5 3 3 3 3 3 4 6 10 14 9 11 9 9 12 12 7
4 5 18 13 6 37 17 22 1 19 10 11 7 14 2 3 4 -6 6 10 11 3 2 9 8 7 11 8 8 9 5 6 4 3 3 5 6 4 11 7 7 6 7 3 7
27 42 26 25 19 25 19 18 -6 20 54 0 6 4 10 0 5 9 -7 8 12 10 4 -0 6 10 7 5 7 7 5 7 7 4 4 2 4 6 4 2 9 9 9 6 7
45 31 24 39 46 35 36 39 49 -1 21 35 15 1 18 16 4 4 8 0 8 13 13 7 2 3 6 8 8 4 5 7 6 4 4 4 4 -2 5 7 10 8 10 8 9
33 22 24 28 27 25 25 29 20 37 39 15 34 44 27 -8 29 43 15 4 2 14 14 14 5 2 -1 3 8 11 11 9 10 8 9 7 10 1 2 8 10 8 10 9 5
27 16 26 28 33 30 29 18 25 26 45 26 53 -2 43 32 19 22 0 33 13 2 5 13 20 19 16 2 5 3 4 7 10 7 8 6 5 3 2 6 11 5 6 9 9
22 11 27 35 20 19 9 11 17 20 29 42 -0 20 -0 -9 -1 13 27 17 9 8 14 13 16 11 19 25 15 7 9 11 4 3 4 4 8 7 3 9 12 7 8 4 10
20 11 19 18 26 26 13 13 -1 0 15 5 54 13 1 52 12 5 -14 41 23 9 2 -12 19 13 4 10 19 25 17 14 10 7 8 9 6 7 7 9 2 8 8 1 6
20 16 19 20 25 27 12 21 15 18 16 5 42 22 -35 34 -5 38 39 -23 15 28 11 11 3 12 4 4 4 5 9 9 8 12 8 11 10 10 10 10 2 6 3 6 0
11 15 11 7 24 26 18 -7 7 13 -1 30 8 57 37 -12 23 42 8 10 -9 -13 1 -1 -11 -2 24 14 5 5 -2 -0 2 8 9 3 9 -1 2 5 16 18 11 7 -1
9 5 1 20 13 19 27 19 10 5 9 -19 19 71 -64 79 -3 13 -21 19 6 11 -13 25 5 5 -1 19 24 26 15 13 13 10 6 6 10 13 10 10 7 6 9 7 6
-2 9 12 5 10 20 29 19 16 20 6 -2 -12 51 -14 -16 54 -23 -39 15 35 26 15 -14 42 12 1 -14 21 14 4 8 4 15 9 10 4 4 4 3 7 9 11 5 2
9 1 5 6 11 -9 19 32 25 17 11 -4 -15 -10 31 -0 -37 62 3 -21 -13 7 -2 26 -17 20 35 -6 -5 -12 12 3 10 -5 -1 -5 -2 3 10 8 10 9 6 2 1
11 -0 -6 -16 27 -17 9 29 20 34 13 8 33 -25 36 40 20 14 29 32 24 25 -9 16 21 -34 2 18 14 14 -7 11 6 -7 7 12 8 13 8 8 5 4 3 1 4
Height
5804 5802 5800 5797 5794 5792 5791 5791 5791 5788 5787 5785 5785 5782 5781 5779 5779 5780 5779 5779 5779 5780 5781 5782 5783 5784 5785 5786 5787 5788 5791 5794 5797 5797 5799 5797 5801 5803 5804 5805 5806 5808 5807 5809 5809
5801 5798 5796 5795 5793 5791 5789 5787 5787 5787 5785 5784 5783 5783 5781 5779 5779 5779 5780 5779 5779 5779 5780 5781 5782 5783 5785 5786 5787 5787 5790 5793 5794 5795 5797 5796 5799 5800 5801 5802 5803 5802 5803 5806 5806
5798 5796 5794 5792 5789 5787 5787 5785 5783 5783 5783 5782 5781 5780 5780 5779 5778 5777 5776 5778 5778 5779 5780 5780 5780 5781 5783 5783 5785 5786 5789 5789 5790 5792 5793 5794 5796 5795 5797 5798 5798 5798 5799 5802 5803
5795 5793 5790 5789 5787 5785 5782 5780 5779 5778 5778 5778 5778 5776 5776 5776 5777 5776 5775 5775 5775 5775 5776 5777 5778 5779 5779 5780 5781 5782 5785 5785 5787 5788 5789 5790 5790 5792 5793 5793 5794 5794 5796 5797 5797
5790 5787 5785 5783 5781 5780 5778 5776 5774 5774 5772 5772 5771 5771 5771 5773 5775 5771 5771 5772 5772 5772 5772 5773 5774 5774 5776 5777 5777 5780 5782 5781 5782 5783 5784 5785 5787 5787 5788 5787 5788 5787 5791 5790 5793
5783 5781 5778 5777 5775 5773 5771 5770 5768 5766 5766 5764 5763 5762 5762 5767 5769 5766 5765 5767 5767 5767 5768 5768 5769 5769 5770 5772 5772 5774 5774 5775 5776 5778 5778 5778 5779 5780 5783 5779 5781 5781 5785 5786 5788
5779 5775 5772 5769 5767 5764 5763 5761 5759 5758 5756 5756 5755 5752 5754 5763 5760 5761 5759 5759 5760 5761 5761 5762 5761 5762 5763 5764 5765 5767 5769 5768 5772 5771 5772 5771 5773 5777 5774 5774 5777 5778 5778 5781 5782
5769 5765 5762 5759 5757 5755 5752 5750 5749 5747 5746 5746 5744 5743 5745 5751 5748 5752 5753 5753 5751 5751 5753 5754 5755 5756 5757 5760 5760 5761 5761 5763 5767 5765 5765 5765 5771 5770 5770 5769 5771 5772 5773 5775 5777
5755 5752 5750 5747 5744 5741 5740 5738 5736 5735 5734 5732 5733 5732 5737 5742 5741 5740 5741 5743 5743 5743 5743 5742 5743 5746 5748 5750 5751 5753 5757 5757 5758 5759 5757 5759 5765 5765 5765 5764 5765 5767 5768 5769 5770
5741 5738 5735 5729 5727 5724 5724 5723 5721 5720 5719 5719 5719 5721 5725 5731 5730 5728 5728 5729 5732 5733 5734 5735 5734 5736 5740 5742 5748 5749 5747 5745 5746 5751 5750 5752 5758 5755 5757 5758 5759 5760 5762 5762 5763
5726 5722 5718 5716 5711 5707 5705 5705 5703 5703 5702 5705 5705 5707 5707 5712 5718 5717 5719 5717 5718 5720 5723 5724 5720 5726 5735 5734 5735 5734 5734 5740 5742 5739 5743 5746 5746 5750 5748 5748 5752 5754 5754 5755 5756
5707 5701 5696 5693 5692 5688 5684 5682 5679 5678 5680 5686 5688 5690 5694 5694 5700 5704 5706 5707 5706 5710 5711 5708 5710 5722 5723 5722 5724 5725 5727 5732 5734 5731 5733 5735 5737 5742 5741 5742 5745 5744 5745 5746 5747
5686 5678 5673 5672 5669 5668 5663 5660 5655 5650 5648 5666 5671 5674 5677 5676 5681 5687 5690 5693 5694 5696 5696 5696 5709 5711 5708 5713 5714 5717 5718 5723 5724 5719 5722 5724 5725 5730 5735 5734 5735 5737 5738 5737 5737
5660 5649 5643 5640 5645 5637 5634 5633 5629 5623 5616 5642 5649 5655 5657 5660 5659 5669 5674 5678 5677 5683 5688 5680 5691 5697 5699 5701 5705 5707 5712 5711 5713 5709 5713 5714 5709 5720 5724 5728 5728 5728 5729 5731 5728
5632 5619 5615 5608 5615 5604 5597 5596 5593 5589 5574 5624 5621 5631 5636 5640 5650 5652 5655 5656 5660 5668 5673 5673 5680 5685 5684 5696 5696 5695 5699 5701 5702 5701 5699 5702 5700 5707 5717 5720 5721 5722 5721 5721 5721
5601 5588 5577 5573 5560 5553 5553 5553 5555 5550 5543 5593 5592 5599 5608 5619 5626 5626 5636 5638 5645 5646 5654 5661 5660 5667 5673 5679 5682 5684 5688 5690 5690 5690 5679 5695 5696 5691 5706 5714 5714 5714 5713 5712 5712
5570 5556 5539 5533 5532 5522 5523 5525 5529 5525 5540 5554 5566 5573 5578 5588 5598 5605 5612 5618 5627 5631 5636 5648 5647 5656 5661 5666 5668 5670 5677 5679 5677 5673 5672 5687 5683 5686 5692 5701 5703 5705 5705 5703 5702
5546 5532 5521 5511 5507 5504 5504 5503 5501 5515 5524 5540 5548 5553 5555 5570 5575 5578 5588 5598 5608 5618 5618 5624 5628 5636 5649 5653 5661 5661 5664 5667 5663 5664 5668 5670 5662 5676 5684 5689 5691 5693 5694 5695 5694
5524 5515 5501 5498 5493 5490 5489 5488 5494 5504 5513 5518 5525 5530 5539 5549 5558 5565 5569 5579 5593 5602 5608 5611 5614 5619 5632 5638 5644 5645 5642 5663 5652 5653 5652 5654 5657 5665 5672 5680 5681 5683 5681 5682 5682
5507 5504 5490 5487 5481 5479 5480 5482 5487 5491 5490 5495 5496 5507 5517 5530 5540 5547 5554 5569 5578 5587 5595 5598 5597 5601 5609 5618 5624 5629 5636 5641 5636 5637 5641 5640 5648 5652 5662 5669 5672 5673 5673 5671 5672
5492 5488 5480 5475 5473 5471 5472 5475 5476 5481 5481 5484 5492 5495 5504 5515 5520 5527 5540 5555 5560 5569 5575 5585 5582 5585 5593 5603 5612 5617 5619 5625 5628 5629 5630 5631 5637 5646 5651 5654 5662 5663 5662 5661 5660
5475 5475 5472 5467 5466 5463 5466 5464 5468 5470 5472 5473 5477 5487 5495 5502 5507 5517 5526 5541 5545 5554 5556 5570 5572 5568 5583 5589 5597 5603 5607 5610 5611 5616 5622 5625 5628 5631 5636 5643 5651 5653 5652 5650 5649
5462 5466 5466 5461 5458 5457 5457 5457 5457 5460 5464 5465 5466 5468 5480 5485 5497 5509 5513 5524 5533 5540 5544 5545 5549 5559 5559 5571 5580 5585 5595 5600 5606 5608 5606 5611 5614 5626 5630 5632 5638 5640 5639 5640 5640
5457 5455 5457 5457 5454 5451 5450 5451 5451 5451 5453 5454 5455 5459 5466 5473 5479 5492 5500 5507 5516 5523 5527 5532 5542 5548 5557 5566 5571 5576 5585 5590 5593 5595 5603 5600 5607 5614 5620 5622 5622 5626 5630 5631 5630
5454 5452 5450 5452 5452 5448 5444 5442 5441 5442 5444 5445 5448 5451 5453 5460 5468 5470 5475 5486 5496 5503 5513 5522 5531 5535 5544 5546 5551 5561 5568 5574 5579 5589 5588 5600 5596 5601 5605 5607 5613 5614 5619 5619 5619
5449 5447 5445 5446 5445 5442 5441 5438 5433 5435 5437 5439 5441 5445 5444 5448 5455 5460 5460 5467 5477 5490 5500 5511 5520 5525 5530 5537 5541 5545 5553 5560 5570 5576 5576 5582 5586 5593 5595 5599 5602 5604 5607 5606 5607
5444 5441 5440 5442 5441 5438 5436 5433 5428 5426 5431 5431 5432 5436 5438 5438 5443 5450 5451 5463 5474 5482 5492 5500 5509 5515 5521 5530 5530 5527 5546 5551 5557 5562 5569 5568 5582 5584 5582 5586 5591 5593 5594 5594 5595